| time (UTC) | temp F | wind direction | speed knots | gust knots | rain 1hr in | rain 24hr in | rain mn in | humidity % | barometer mb |
| 20260510094540 | 60 | 0.0 | 0.0 | 0.00 | 0.00 | 0.00 | 77 | 1031.7 | |
| 20260510093547 | 60 | 0.0 | 0.0 | 0.00 | 0.00 | 0.00 | 76 | 1031.7 | |
| 20260510092607 | 60 | 0.0 | 0.0 | 0.00 | 0.00 | 0.00 | 76 | 1031.7 | |
| 20260510091520 | 60 | 0.0 | 0.0 | 0.00 | 0.00 | 0.00 | 76 | 1031.7 | |
| 20260510090546 | 60 | 0.0 | 0.0 | 0.00 | 0.00 | 0.00 | 75 | 1031.5 | |
| 20260510085531 | 60 | 0.0 | 0.0 | 0.00 | 0.00 | 0.00 | 76 | 1031.5 | |
| 20260510084547 | 60 | 0.0 | 0.0 | 0.00 | 0.00 | 0.00 | 76 | 1031.4 | |
| 20260510083540 | 60 | 0.0 | 0.0 | 0.00 | 0.00 | 0.00 | 75 | 1031.2 | |
| 20260510082546 | 60 | 0.0 | 0.0 | 0.00 | 0.00 | 0.00 | 74 | 1031.2 | |
| 20260510081546 | 61 | 0.0 | 0.0 | 0.00 | 0.00 | 0.00 | 73 | 1031.1 | |
| 20260510080521 | 61 | 0.0 | 0.0 | 0.00 | 0.00 | 0.00 | 71 | 1031.0 | |
| 20260510075547 | 61 | 0.0 | 0.0 | 0.00 | 0.00 | 0.00 | 71 | 1031.0 | |
| 20260510074531 | 61 | 0.0 | 0.0 | 0.00 | 0.00 | 0.00 | 71 | 1030.9 | |
| 20260510073546 | 61 | 0.0 | 0.0 | 0.00 | 0.00 | 0.00 | 69 | 1030.8 | |
| 20260510072546 | 61 | 0.0 | 0.0 | 0.00 | 0.00 | 0.00 | 68 | 1030.8 | |
| 20260510071547 | 62 | 0.0 | 0.0 | 0.00 | 0.00 | 0.00 | 69 | 1030.7 | |
| 20260510070547 | 62 | 0.0 | 0.0 | 0.00 | 0.00 | 0.00 | 69 | 1030.7 | |
| 20260510065520 | 62 | 0.0 | 0.0 | 0.00 | 0.00 | 0.00 | 70 | 1030.7 | |
| 20260510064547 | 62 | 0.0 | 0.0 | 0.00 | 0.00 | 0.00 | 72 | 1030.7 | |
| 20260510063531 | 62 | 0.0 | 0.0 | 0.00 | 0.00 | 0.00 | 74 | 1030.7 | |
| 20260510062547 | 62 | 0.0 | 0.0 | 0.00 | 0.00 | 0.00 | 75 | 1030.7 | |
| 20260510061540 | 62 | 0.0 | 0.0 | 0.00 | 0.00 | 0.00 | 76 | 1030.6 | |
| 20260510060627 | 62 | 0.0 | 0.0 | 0.00 | 0.00 | 0.00 | 75 | 1030.7 | |
| 20260510055627 | 62 | 0.0 | 0.0 | 0.00 | 0.00 | 0.00 | 75 | 1030.7 | |
| 20260510054541 | 62 | 0.0 | 0.0 | 0.00 | 0.00 | 0.00 | 76 | 1030.6 | |
| 20260510053546 | 61 | 0.0 | 0.0 | 0.00 | 0.00 | 0.00 | 76 | 1030.6 | |
| 20260510052531 | 62 | 0.0 | 0.0 | 0.00 | 0.00 | 0.00 | 76 | 1030.6 | |
| 20260510051547 | 62 | 0.0 | 0.0 | 0.00 | 0.00 | 0.00 | 77 | 1030.6 | |
| 20260510050540 | 62 | 0.0 | 0.0 | 0.00 | 0.00 | 0.00 | 76 | 1030.5 | |
| 20260510045606 | 62 | 0.0 | 0.0 | 0.00 | 0.00 | 0.00 | 74 | 1030.5 | |
| 20260510044546 | 62 | 0.0 | 0.0 | 0.00 | 0.00 | 0.00 | 74 | 1030.6 | |
| 20260510043520 | 62 | 0.0 | 0.0 | 0.00 | 0.00 | 0.00 | 75 | 1030.6 | |
| 20260510042546 | 62 | 0.0 | 0.0 | 0.00 | 0.00 | 0.00 | 73 | 1030.6 | |
| 20260510041530 | 62 | 0.0 | 0.0 | 0.00 | 0.00 | 0.00 | 75 | 1030.5 | |
| 20260510040546 | 62 | 0.0 | 0.0 | 0.00 | 0.00 | 0.00 | 74 | 1030.6 | |
| 20260510035541 | 63 | 0.0 | 0.0 | 0.00 | 0.00 | 0.00 | 75 | 1030.6 | |
| 20260510034547 | 63 | 0.0 | 0.0 | 0.00 | 0.00 | 0.00 | 75 | 1030.7 | |
| 20260510033546 | 64 | 0.0 | 0.0 | 0.00 | 0.00 | 0.00 | 71 | 1030.8 | |
| 20260510032601 | 64 | 0.0 | 0.0 | 0.00 | 0.00 | 0.00 | 69 | 1030.9 | |
| 20260510031546 | 64 | 0.0 | 0.0 | 0.00 | 0.00 | 0.00 | 72 | 1031.0 | |
| 20260510030551 | 63 | 0.0 | 0.0 | 0.00 | 0.00 | 0.00 | 73 | 1031.2 | |
| 20260510025546 | 63 | 0.0 | 0.0 | 0.00 | 0.00 | 0.00 | 72 | 1031.3 | |
| 20260510024540 | 63 | 0.0 | 0.0 | 0.00 | 0.00 | 0.00 | 74 | 1031.5 | |
| 20260510023546 | 63 | 124 | 2.6 | 5.2 | 0.00 | 0.00 | 0.00 | 75 | 1031.7 |
| 20260510022606 | 62 | 68 | 2.6 | 5.2 | 0.00 | 0.00 | 0.00 | 74 | 1031.9 |
| 20260510021520 | 62 | 68 | 3.5 | 7.8 | 0.00 | 0.00 | 0.00 | 74 | 1032.1 |
| 20260510020546 | 62 | 68 | 3.5 | 7.8 | 0.00 | 0.00 | 0.00 | 75 | 1032.1 |
| 20260510015551 | 62 | 92 | 2.6 | 7.8 | 0.00 | 0.00 | 0.00 | 76 | 1032.2 |
| 20260510014547 | 62 | 112 | 0.9 | 4.3 | 0.00 | 0.00 | 0.00 | 75 | 1032.3 |
| 20260510013541 | 62 | 0.0 | 0.0 | 0.00 | 0.00 | 0.00 | 76 | 1032.4 | |
| 20260510012546 | 62 | 0.0 | 0.0 | 0.00 | 0.00 | 0.00 | 77 | 1032.4 | |
| 20260510011546 | 62 | 68 | 0.9 | 3.5 | 0.00 | 0.00 | 0.00 | 76 | 1032.4 |
| 20260510010521 | 62 | 0.0 | 0.0 | 0.00 | 0.02 | 0.00 | 77 | 1032.5 | |
| 20260510005546 | 61 | 0.0 | 0.0 | 0.00 | 0.02 | 0.00 | 78 | 1032.4 | |
| 20260510004531 | 61 | 0.0 | 0.0 | 0.00 | 0.02 | 0.00 | 79 | 1032.5 | |
| 20260510003546 | 60 | 0.0 | 0.0 | 0.00 | 0.02 | 0.00 | 80 | 1032.5 | |
| 20260510002541 | 60 | 0.0 | 0.0 | 0.00 | 0.02 | 0.00 | 80 | 1032.5 | |
| 20260510001546 | 60 | 0.0 | 0.0 | 0.00 | 0.02 | 0.00 | 82 | 1032.5 | |
| 20260510000546 | 60 | 0.0 | 0.0 | 0.00 | 0.02 | 0.00 | 84 | 1032.5 | |
| 20260509235541 | 59 | 0.0 | 0.0 | 0.00 | 0.02 | 0.00 | 85 | 1032.5 | |
| 20260509234546 | 59 | 0.0 | 0.0 | 0.00 | 0.02 | 0.00 | 86 | 1032.6 | |
| 20260509233531 | 58 | 90 | 0.9 | 4.3 | 0.00 | 0.02 | 0.00 | 87 | 1032.6 |
| 20260509232546 | 58 | 0.0 | 0.0 | 0.00 | 0.02 | 0.00 | 91 | 1032.6 | |
| 20260509231541 | 58 | 0.0 | 0.0 | 0.00 | 0.02 | 0.00 | 93 | 1032.6 | |
| 20260509230546 | 57 | 0.0 | 0.0 | 0.00 | 0.03 | 0.00 | 94 | 1032.5 | |
| 20260509225546 | 56 | 0.0 | 0.0 | 0.00 | 0.03 | 0.00 | 94 | 1032.4 | |
| 20260509224521 | 56 | 0.0 | 0.0 | 0.00 | 0.05 | 0.00 | 94 | 1032.4 | |
| 20260509223546 | 55 | 0.0 | 0.0 | 0.00 | 0.05 | 0.00 | 94 | 1032.3 | |
| 20260509222531 | 55 | 0.0 | 0.0 | 0.00 | 0.05 | 0.00 | 93 | 1032.2 | |
| 20260509221546 | 54 | 0.0 | 0.0 | 0.00 | 0.06 | 0.00 | 93 | 1032.2 | |
| 20260509220601 | 54 | 0.0 | 0.0 | 0.00 | 0.06 | 0.00 | 93 | 1032.1 | |
| 20260509215546 | 54 | 0.0 | 0.0 | 0.00 | 0.08 | 0.00 | 93 | 1032.0 | |
| 20260509214546 | 54 | 0.0 | 0.0 | 0.00 | 0.08 | 0.00 | 92 | 1031.9 | |
| 20260509213521 | 54 | 0.0 | 0.0 | 0.00 | 0.08 | 0.00 | 92 | 1031.8 | |
| 20260509212546 | 54 | 0.0 | 0.0 | 0.00 | 0.09 | 0.00 | 91 | 1031.7 | |
| 20260509211531 | 55 | 0.0 | 0.0 | 0.00 | 0.09 | 0.00 | 90 | 1031.5 | |
| 20260509210546 | 56 | 0.0 | 0.0 | 0.00 | 0.09 | 0.00 | 91 | 1031.5 | |
| 20260509205546 | 56 | 0.0 | 0.0 | 0.00 | 0.11 | 0.00 | 90 | 1031.4 | |
| 20260509204546 | 55 | 0.0 | 0.0 | 0.00 | 0.11 | 0.00 | 91 | 1031.4 | |
| 20260509203546 | 55 | 0.0 | 0.0 | 0.00 | 0.11 | 0.00 | 91 | 1031.3 | |
| 20260509202521 | 55 | 0.0 | 0.0 | 0.00 | 0.11 | 0.00 | 91 | 1031.3 | |
| 20260509201546 | 56 | 0.0 | 0.0 | 0.00 | 0.11 | 0.00 | 91 | 1031.2 | |
| 20260509200531 | 56 | 0.0 | 0.0 | 0.00 | 0.11 | 0.00 | 90 | 1031.1 | |
| 20260509195546 | 56 | 0.0 | 0.0 | 0.00 | 0.11 | 0.00 | 90 | 1031.0 | |
| 20260509194601 | 56 | 0.0 | 0.0 | 0.00 | 0.11 | 0.00 | 90 | 1030.9 | |
| 20260509193546 | 56 | 0.0 | 0.0 | 0.00 | 0.11 | 0.00 | 90 | 1030.8 | |
| 20260509192546 | 56 | 0.0 | 0.0 | 0.00 | 0.11 | 0.00 | 90 | 1030.8 | |
| 20260509191521 | 56 | 0.0 | 0.0 | 0.00 | 0.11 | 0.00 | 90 | 1030.7 | |
| 20260509190546 | 56 | 0.0 | 0.0 | 0.00 | 0.11 | 0.00 | 90 | 1030.6 | |
| 20260509185531 | 56 | 0.0 | 0.0 | 0.00 | 0.11 | 0.00 | 90 | 1030.5 | |
| 20260509184546 | 56 | 0.0 | 0.0 | 0.00 | 0.11 | 0.00 | 90 | 1030.4 | |
| 20260509183601 | 56 | 0.0 | 0.0 | 0.00 | 0.11 | 0.00 | 90 | 1030.5 | |
| 20260509182546 | 56 | 0.0 | 0.0 | 0.00 | 0.11 | 0.00 | 90 | 1030.5 | |
| 20260509181546 | 56 | 0.0 | 0.0 | 0.00 | 0.11 | 0.00 | 90 | 1030.5 | |
| 20260509180521 | 56 | 0.0 | 0.0 | 0.00 | 0.11 | 0.00 | 90 | 1030.5 | |
| 20260509175546 | 57 | 0.0 | 0.0 | 0.00 | 0.11 | 0.00 | 89 | 1030.4 | |
| 20260509174531 | 57 | 0.0 | 0.0 | 0.00 | 0.11 | 0.00 | 89 | 1030.5 | |
| 20260509173546 | 58 | 0.0 | 0.0 | 0.00 | 0.11 | 0.00 | 88 | 1030.5 | |
| 20260509172541 | 58 | 0.0 | 0.0 | 0.00 | 0.11 | 0.00 | 88 | 1030.3 | |
| 20260509171606 | 58 | 0.0 | 0.0 | 0.00 | 0.11 | 0.00 | 87 | 1030.4 | |
| 20260509170546 | 58 | 0.0 | 0.0 | 0.00 | 0.11 | 0.00 | 87 | 1030.4 | |
| 20260509165541 | 58 | 0.0 | 0.0 | 0.00 | 0.11 | 0.00 | 87 | 1030.4 | |
| 20260509164546 | 58 | 0.0 | 0.0 | 0.00 | 0.11 | 0.00 | 87 | 1030.4 | |
| 20260509163531 | 58 | 112 | 1.7 | 6.1 | 0.00 | 0.11 | 0.00 | 87 | 1030.5 |
| 20260509162545 | 58 | 0.0 | 0.0 | 0.00 | 0.11 | 0.00 | 87 | 1030.5 | |
| 20260509161542 | 58 | 0.0 | 0.0 | 0.00 | 0.11 | 0.00 | 88 | 1030.6 | |
| 20260509160546 | 58 | 0.0 | 0.0 | 0.00 | 0.11 | 0.00 | 88 | 1030.6 | |
| 20260509155545 | 58 | 0.0 | 0.0 | 0.00 | 0.11 | 0.00 | 88 | 1030.6 | |
| 20260509154521 | 58 | 0.0 | 0.0 | 0.00 | 0.11 | 0.00 | 88 | 1030.7 | |
| 20260509153546 | 58 | 0.0 | 0.0 | 0.00 | 0.11 | 0.00 | 88 | 1030.7 | |
| 20260509152531 | 58 | 0.0 | 0.0 | 0.00 | 0.11 | 0.00 | 88 | 1030.8 | |
| 20260509151545 | 58 | 0.0 | 0.0 | 0.00 | 0.11 | 0.00 | 88 | 1030.8 | |
| 20260509150545 | 58 | 0.0 | 0.0 | 0.00 | 0.11 | 0.00 | 88 | 1030.9 | |
| 20260509145557 | 59 | 0.0 | 0.0 | 0.00 | 0.11 | 0.00 | 89 | 1030.9 | |
| 20260509144546 | 59 | 90 | 1.7 | 6.1 | 0.00 | 0.11 | 0.00 | 89 | 1030.9 |
| 20260509143521 | 59 | 91 | 2.6 | 6.1 | 0.00 | 0.11 | 0.00 | 89 | 1030.9 |
| 20260509142546 | 59 | 0.0 | 0.0 | 0.00 | 0.11 | 0.11 | 89 | 1030.9 | |
| 20260509141531 | 59 | 0.0 | 0.0 | 0.00 | 0.11 | 0.11 | 89 | 1031.0 | |
| 20260509140545 | 59 | 0.0 | 0.0 | 0.00 | 0.11 | 0.11 | 89 | 1031.0 | |
| 20260509135606 | 60 | 112 | 0.9 | 7.8 | 0.00 | 0.11 | 0.11 | 88 | 1031.0 |
| 20260509134545 | 59 | 151 | 5.2 | 7.8 | 0.00 | 0.11 | 0.11 | 86 | 1031.0 |
| 20260509133626 | 58 | 151 | 4.3 | 7.8 | 0.00 | 0.11 | 0.11 | 89 | 1031.0 |
| 20260509132521 | 57 | 0.0 | 0.0 | 0.00 | 0.11 | 0.11 | 94 | 1031.1 | |
| 20260509131606 | 57 | 0.0 | 0.0 | 0.00 | 0.11 | 0.11 | 94 | 1031.2 | |
| 20260509130531 | 56 | 0.0 | 0.0 | 0.00 | 0.13 | 0.11 | 94 | 1031.2 | |
| 20260509125627 | 56 | 0.0 | 0.0 | 0.00 | 0.13 | 0.11 | 94 | 1031.2 | |
| 20260509124605 | 56 | 0.0 | 0.0 | 0.00 | 0.13 | 0.11 | 94 | 1031.2 | |
| 20260509123545 | 56 | 0.0 | 0.0 | 0.00 | 0.13 | 0.11 | 94 | 1031.2 | |
| 20260509122545 | 55 | 0.0 | 0.0 | 0.00 | 0.13 | 0.11 | 94 | 1031.3 | |
| 20260509121521 | 55 | 0.0 | 0.0 | 0.00 | 0.13 | 0.11 | 94 | 1031.3 | |
| 20260509120545 | 55 | 0.0 | 0.0 | 0.00 | 0.13 | 0.11 | 94 | 1031.2 | |
| 20260509115531 | 55 | 0.0 | 0.0 | 0.00 | 0.13 | 0.11 | 94 | 1031.2 | |
| 20260509114545 | 55 | 0.0 | 0.0 | 0.00 | 0.13 | 0.11 | 93 | 1031.2 | |
| 20260509113545 | 56 | 0.0 | 0.0 | 0.00 | 0.13 | 0.11 | 93 | 1031.1 | |
| 20260509112606 | 57 | 0.0 | 0.0 | 0.00 | 0.13 | 0.11 | 92 | 1031.1 | |
| 20260509111546 | 57 | 0.0 | 0.0 | 0.00 | 0.13 | 0.11 | 93 | 1031.1 | |
| 20260509110521 | 57 | 0.0 | 0.0 | 0.00 | 0.13 | 0.11 | 92 | 1031.2 | |
| 20260509105605 | 57 | 0.0 | 0.0 | 0.00 | 0.13 | 0.11 | 92 | 1031.2 | |
| 20260509104531 | 57 | 0.0 | 0.0 | 0.00 | 0.13 | 0.11 | 92 | 1031.1 | |
| 20260509103545 | 57 | 0.0 | 0.0 | 0.00 | 0.13 | 0.11 | 92 | 1031.1 | |
| 20260509102545 | 57 | 0.0 | 0.0 | 0.00 | 0.13 | 0.11 | 92 | 1031.1 | |
| 20260509101606 | 58 | 0.0 | 0.0 | 0.00 | 0.13 | 0.11 | 92 | 1031.1 | |
| 20260509100545 | 58 | 0.0 | 0.0 | 0.00 | 0.13 | 0.11 | 91 | 1031.1 | |
| 20260509095521 | 58 | 0.0 | 0.0 | 0.00 | 0.13 | 0.11 | 91 | 1031.1 |